RH
23 22 22 22 21 21 21 20 19 18 18 18 18 17 17 17 16 16 15 15 14 13 12 12 11 11 11 11 12 12 12 12 13 14 14 14 14 13 13 13 12 11 11 11 10 10 10 11 11 12 14 16 20 23 25 26 28 30 33 35 36 39 38 37 40 47 52 51 45 41 35 27 19 14 10 9 10 12 15 19 24 32 39 45 48
21 21 20 19 18 18 17 16 16 15 15 15 15 14 14 13 13 12 11 11 10 9 9 9 9 9 9 9 9 9 10 10 11 12 13 14 14 14 13 14 14 12 11 11 11 10 10 10 11 11 11 12 14 16 20 23 26 28 31 34 35 35 37 39 39 42 47 50 49 48 48 45 39 30 21 15 11 11 12 16 19 24 32 39 45
18 17 17 16 15 15 14 14 14 14 14 13 12 11 10 10 9 8 7 7 7 7 7 7 7 7 8 8 8 8 8 8 9 10 11 12 13 14 13 13 14 14 12 11 11 11 11 10 10 10 11 11 12 13 14 16 19 22 26 31 34 35 35 37 40 41 42 45 51 54 51 48 47 44 39 33 26 20 17 18 20 22 25 29 33
18 17 16 15 14 14 14 14 14 13 13 12 11 10 8 7 7 6 6 6 7 7 7 7 6 6 6 6 6 6 6 6 7 7 8 9 10 11 12 12 13 13 13 12 12 12 12 11 10 10 10 10 11 12 13 14 15 16 18 22 28 33 35 35 38 44 47 45 47 52 51 48 45 45 51 52 46 39 33 29 27 26 25 23 23
18 17 15 14 13 13 13 13 12 12 11 10 8 8 7 6 6 7 7 7 7 7 7 7 6 5 5 5 5 5 5 5 5 5 6 6 7 8 10 10 11 12 12 11 12 12 11 12 11 11 10 10 11 11 12 12 13 14 15 16 19 24 30 33 34 41 49 50 46 47 50 51 49 49 58 62 58 55 53 47 41 36 31 25 22
15 14 13 13 13 13 13 12 11 10 9 8 7 6 6 6 6 7 6 6 6 6 5 5 5 5 5 5 5 4 4 4 4 4 5 5 5 6 7 8 8 9 10 10 10 11 11 11 12 11 11 11 11 11 12 12 13 14 14 15 15 17 20 25 29 33 41 48 47 48 50 54 56 57 57 56 55 57 57 56 53 49 43 38 32
12 12 12 12 12 11 11 10 9 8 7 6 6 5 5 5 5 5 5 5 4 4 4 4 4 3 3 3 3 3 3 3 3 4 4 4 4 4 5 6 6 7 7 8 8 8 9 10 10 11 11 11 11 11 12 13 13 13 13 14 14 15 15 17 22 26 33 39 41 44 50 56 60 62 59 53 53 57 57 59 61 60 56 51 46
12 12 12 12 11 10 9 8 8 7 6 6 5 5 5 4 4 4 4 4 4 4 3 3 3 3 3 3 2 2 2 2 3 3 3 3 4 4 4 4 5 5 6 6 7 6 7 7 8 9 10 10 10 11 12 13 14 13 13 13 14 15 14 15 16 19 26 31 33 36 44 53 60 68 71 64 59 60 62 64 66 66 64 61 59
13 13 12 12 11 10 9 8 7 7 6 5 4 4 4 4 3 3 3 3 3 3 3 3 3 3 3 3 2 2 2 2 2 2 2 3 3 3 3 4 4 4 5 5 6 6 6 6 6 7 8 9 9 10 11 12 14 15 15 14 13 14 14 14 15 16 19 23 28 31 34 41 51 63 73 74 69 65 64 66 67 66 65 66 67
12 12 11 10 9 8 7 6 6 5 4 4 4 3 3 3 3 3 3 3 3 2 2 2 2 2 2 2 2 2 2 2 2 2 2 2 2 2 2 3 3 3 4 4 4 5 5 5 5 5 6 7 7 8 9 10 12 14 15 15 14 14 14 14 13 14 15 17 21 26 27 30 37 47 63 76 80 80 79 76 73 71 69 70 73
10 9 9 8 7 6 6 5 4 4 3 3 3 3 3 3 3 3 3 3 3 3 3 3 3 2 2 2 2 2 2 2 2 2 2 2 2 2 2 2 2 3 3 3 4 4 4 4 5 5 5 6 6 7 7 8 10 12 13 15 15 15 14 14 13 13 14 15 16 18 22 24 26 34 51 70 85 91 93 93 88 83 80 79 79
8 8 7 6 6 6 5 5 4 4 4 3 3 3 3 3 3 3 3 3 3 3 3 3 3 3 3 2 2 2 2 2 2 2 2 2 2 2 2 2 2 2 2 3 3 3 3 4 4 4 4 5 5 6 6 7 8 9 11 12 14 15 15 15 14 13 13 13 14 15 17 19 20 24 37 61 84 91 92 97 96 89 85 84 81
7 6 6 5 5 4 4 4 4 3 3 3 3 3 2 2 3 3 3 3 3 3 3 3 3 3 3 3 2 2 2 2 2 2 2 2 2 2 2 2 2 2 2 2 2 3 3 3 3 3 3 4 4 5 5 6 7 7 9 10 11 12 14 15 14 14 13 13 13 14 14 15 17 18 23 41 68 87 94 91 89 90 90 87 83
5 4 4 4 3 3 3 3 3 3 3 3 3 3 3 3 3 3 3 2 2 2 2 2 2 2 2 2 2 2 2 2 2 2 2 2 2 2 2 2 2 2 2 2 2 2 2 2 3 3 3 3 3 4 4 5 6 6 7 8 9 10 11 13 14 14 14 13 12 13 13 14 15 16 17 23 39 67 88 88 85 93 95 88 83
4 4 4 3 3 3 3 3 3 3 3 3 3 3 3 3 3 3 3 2 2 2 1 2 1 2 2 2 2 2 2 2 2 2 2 2 2 2 2 2 2 2 2 2 2 2 2 2 2 2 3 3 3 3 3 4 5 5 6 6 7 9 10 10 12 13 14 13 12 11 11 12 14 15 16 17 20 36 60 76 84 91 91 87 83
4 4 4 4 3 3 3 3 3 3 3 3 3 3 3 3 3 3 3 2 2 2 2 2 1 1 2 2 2 2 2 2 2 2 2 2 2 2 2 2 2 2 2 2 2 2 2 2 2 2 2 2 3 3 3 3 4 4 5 5 6 7 9 9 10 11 12 13 13 12 10 10 12 13 14 17 17 20 31 49 65 73 78 83 87
4 4 4 4 3 3 3 3 3 3 3 3 3 3 3 3 3 3 2 2 2 2 2 2 2 2 1 2 2 2 2 2 2 2 2 2 2 2 2 2 2 2 2 2 2 2 2 2 2 2 2 2 2 2 3 3 3 3 4 5 5 5 7 9 9 9 10 11 12 11 10 9 9 11 13 14 16 17 19 26 37 46 53 64 77
3 3 3 3 3 3 2 3 3 3 3 3 3 3 3 3 3 2 2 2 2 2 2 2 2 2 1 2 2 2 2 2 2 2 2 2 2 2 2 2 2 2 2 2 2 2 2 2 2 2 2 2 2 2 3 2 3 3 3 4 5 5 5 6 8 9 9 10 10 10 10 9 8 8 10 13 14 16 17 19 22 26 30 35 44
3 3 3 3 3 2 2 3 3 3 3 3 3 3 3 3 2 2 2 2 2 2 2 2 2 2 2 1 2 2 2 2 2 2 2 2 2 2 2 2 2 2 2 2 2 2 2 2 2 2 2 2 2 2 2 2 3 3 3 4 4 4 5 5 6 8 8 8 9 9 9 9 9 7 7 9 11 14 16 18 20 20 21 23 22
3 3 3 3 3 3 3 3 3 3 3 3 3 3 3 3 2 2 2 2 2 2 2 2 2 2 2 2 2 2 2 2 2 2 2 2 2 2 2 2 2 2 2 2 2 2 2 2 2 2 2 2 2 2 2 2 2 2 3 3 3 3 4 4 5 6 7 8 7 8 8 8 9 8 7 7 8 10 13 15 19 20 20 21 20
3 3 2 3 3 3 3 3 3 3 3 3 3 3 3 3 2 2 2 2 2 2 2 2 2 2 2 2 2 2 2 2 2 2 2 2 2 2 2 2 2 2 2 2 2 2 2 2 2 2 2 2 2 2 2 2 2 2 2 3 3 3 3 4 4 5 5 7 7 7 7 7 8 8 7 7 7 8 10 13 16 18 19 20 20
3 3 3 3 3 3 3 3 3 3 3 3 3 3 3 3 2 2 2 2 2 2 2 2 2 2 2 2 2 2 2 2 2 2 2 2 2 2 2 2 2 2 2 2 2 2 2 2 2 2 2 2 2 2 2 2 2 2 2 2 2 3 3 3 3 4 4 5 6 7 7 7 7 7 7 7 7 7 8 10 13 16 18 19 20
3 3 3 3 3 3 3 3 3 3 3 3 3 3 3 2 2 2 2 2 2 2 2 2 2 2 2 2 2 2 2 2 2 2 2 2 2 2 2 2 2 2 2 2 2 2 2 2 2 2 2 2 2 2 2 2 2 2 2 2 2 2 3 3 3 4 4 4 5 6 6 7 6 7 7 6 7 7 7 8 10 12 15 18 20
3 3 3 3 3 3 3 3 3 3 3 3 3 3 3 2 2 2 2 2 2 2 2 2 2 2 2 2 2 2 2 2 2 2 2 2 2 2 2 2 2 2 2 2 2 2 2 2 2 2 2 2 2 2 2 2 2 2 2 2 2 2 2 3 3 3 3 4 4 5 6 6 6 6 6 6 7 7 6 6 7 9 12 15 17
3 3 3 3 3 3 3 3 3 3 3 3 3 3 2 2 2 2 2 2 2 2 2 2 2 2 2 2 2 2 2 2 2 2 2 2 2 2 2 2 2 2 2 2 2 2 2 2 2 2 2 2 2 2 2 2 2 2 2 2 2 2 2 2 2 3 3 3 3 4 5 5 5 6 6 6 7 7 7 6 6 7 9 12 14
3 3 3 3 3 3 3 3 3 3 3 3 3 3 2 2 2 2 2 2 2 2 2 2 2 2 2 2 2 2 2 2 2 2 2 2 2 2 2 2 2 2 2 2 2 2 2 2 2 2 2 2 2 2 2 2 2 2 2 2 2 2 2 2 2 2 3 3 3 3 4 4 5 5 5 6 7 7 7 7 7 7 8 9 11
2 3 3 3 3 3 3 3 3 3 3 3 3 2 2 2 2 2 2 2 2 2 2 2 2 2 2 2 2 2 2 2 2 2 2 2 2 2 2 2 3 2 2 2 2 2 2 2 2 2 2 2 2 2 2 2 2 2 2 2 2 2 2 2 2 2 2 3 3 3 3 4 4 5 5 5 6 6 7 7 7 7 7 8 9
2 3 3 2 3 3 3 3 3 3 3 3 3 2 2 2 2 2 2 2 2 2 2 2 2 2 2 2 2 2 2 2 2 2 2 2 2 3 3 2 2 3 3 3 2 2 2 2 2 2 2 2 2 2 2 2 2 2 2 2 2 2 2 2 2 3 2 2 2 2 3 3 3 4 4 4 5 5 6 6 6 7 7 7 8
3 2 2 2 3 3 3 3 3 3 3 2 2 2 2 2 2 2 2 2 2 2 2 2 2 2 2 2 2 2 2 2 2 2 2 2 2 2 3 3 2 3 3 3 3 3 2 2 2 2 2 2 2 2 2 2 2 2 2 2 2 2 2 2 2 3 2 2 2 2 2 3 3 3 3 4 4 4 5 5 5 6 6 6 6
3 2 2 3 2 3 3 3 3 3 3 2 2 2 2 2 2 2 2 2 2 2 2 2 2 2 2 2 2 2 2 2 2 2 2 2 2 2 3 3 3 3 3 3 3 3 3 3 2 2 2 2 2 2 2 2 2 2 2 2 2 2 2 2 2 2 2 2 2 2 2 3 2 3 3 3 3 4 4 4 4 5 5 5 6
3 2 3 3 2 3 3 3 3 3 2 2 2 2 2 2 2 2 2 2 2 2 2 2 2 2 2 2 2 2 2 2 2 2 2 2 2 2 3 3 3 3 2 3 3 3 3 3 3 3 3 2 3 2 2 2 2 2 2 2 2 2 2 2 2 2 3 2 2 2 2 2 2 3 3 3 3 3 3 4 4 4 4 4 5
3 3 3 3 3 3 3 3 3 3 2 2 2 2 2 2 2 2 2 2 2 2 2 2 2 2 2 2 2 2 2 2 2 2 2 2 2 2 3 3 3 3 3 3 3 3 3 3 3 3 3 3 3 3 2 2 2 2 2 2 2 2 2 2 2 2 2 2 3 2 2 2 2 3 3 3 3 3 3 3 3 3 4 4 4
3 3 3 3 3 3 3 3 3 3 2 2 2 2 2 2 2 2 2 2 2 2 2 2 2 3 2 3 3 2 3 2 2 2 2 2 3 3 3 3 3 3 3 3 3 3 3 3 3 3 3 3 3 3 3 3 3 3 3 3 2 2 2 2 2 2 2 2 2 2 2 3 2 2 3 2 3 3 3 3 3 3 3 3 4
3 3 3 3 3 3 3 3 3 3 2 2 2 2 2 2 2 2 2 2 2 2 3 2 3 3 2 3 3 3 3 3 2 2 3 3 3 3 3 3 3 3 3 3 3 3 3 3 3 3 3 3 3 3 3 3 3 3 3 3 3 2 2 2 2 2 2 2 2 2 2 2 2 2 3 2 3 3 3 3 3 3 3 3 3
3 3 3 3 3 3 3 3 3 3 2 2 2 2 2 2 2 2 2 2 2 2 3 3 3 3 3 3 3 3 3 3 3 3 3 3 3 3 3 3 3 3 3 3 3 3 3 3 3 4 3 3 3 3 3 4 4 3 3 3 3 3 3 3 2 2 2 2 2 2 2 2 2 2 2 2 3 2 2 3 2 3 3 3 3
3 3 3 3 3 3 3 3 3 2 2 2 2 2 2 2 2 2 2 2 2 3 3 3 3 3 3 3 3 3 3 3 3 3 3 3 3 3 3 3 3 3 3 3 3 3 3 3 3 4 4 4 4 4 3 4 4 4 4 3 3 3 3 3 2 2 2 2 2 2 2 2 2 2 2 2 3 2 2 3 3 3 3 3 3
3 3 3 3 3 3 3 3 2 2 2 2 2 2 2 2 2 2 3 3 3 3 3 3 3 3 3 3 3 3 3 3 3 3 3 3 3 3 3 2 3 3 3 3 3 3 3 3 3 3 4 4 4 4 4 4 4 4 4 4 4 4 3 3 3 2 2 2 2 2 2 2 2 2 2 2 2 3 3 3 3 3 3 3 3
3 3 3 3 3 3 3 3 2 2 2 2 2 2 2 2 2 2 3 3 3 3 3 3 3 3 3 3 3 3 3 3 3 3 3 3 2 3 3 2 3 3 3 3 3 3 3 3 3 3 3 4 4 4 4 4 4 4 4 4 4 4 4 4 3 3 3 2 3 2 2 3 2 2 2 2 2 2 2 3 3 3 3 3 3
3 3 3 3 3 3 3 3 2 2 2 2 2 2 2 2 2 3 3 3 3 3 3 3 3 3 3 3 3 3 3 3 3 3 3 3 3 3 2 3 3 3 3 3 3 3 3 3 3 3 3 4 4 4 4 4 4 4 4 4 4 4 4 4 3 3 3 3 3 3 2 3 2 2 2 2 2 2 2 2 3 3 3 3 3
3 3 3 3 3 3 3 3 2 2 2 2 2 2 2 3 3 3 3 3 3 3 3 3 3 3 3 3 3 3 3 3 3 3 3 3 3 3 3 3 3 3 3 3 3 3 3 3 3 3 3 4 3 4 4 4 4 4 4 3 4 4 4 4 4 4 4 3 3 3 3 3 3 3 3 3 3 3 3 3 3 3 3 3 3
3 3 3 3 3 3 3 3 2 2 2 2 2 2 2 3 3 3 3 3 3 3 3 3 3 2 3 2 2 3 3 3 3 3 3 3 3 3 3 3 3 3 3 3 3 3 3 3 3 3 3 3 3 3 4 4 4 4 4 4 4 4 4 4 4 4 4 4 3 3 4 4 3 3 3 3 3 3 3 3 3 3 3 3 3
3 3 3 3 3 3 3 3 2 2 2 2 2 2 3 3 3 3 3 3 3 3 3 3 3 3 3 2 3 2 2 3 3 2 3 3 3 3 3 3 3 3 3 3 3 3 3 3 3 3 3 3 4 4 4 4 4 4 4 4 4 4 4 4 4 4 3 3 3 3 3 4 4 4 4 4 4 4 3 4 3 3 3 3 3
3 3 3 3 3 3 2 2 2 2 2 2 3 3 3 3 3 3 3 3 3 3 3 3 3 3 2 2 3 3 2 3 3 3 3 3 3 3 3 3 3 3 3 3 3 3 3 3 3 3 3 3 4 4 4 4 4 4 4 4 3 3 4 3 4 4 3 3 4 3 3 3 3 4 4 4 4 4 4 5 4 3 3 3 3
3 3 3 3 2 2 3 3 2 2 2 3 3 3 3 3 3 3 3 3 3 3 3 3 3 3 3 3 3 3 3 3 3 3 3 3 3 3 3 3 3 3 3 3 3 3 3 3 3 3 4 4 4 4 4 4 4 4 4 4 4 3 3 3 3 3 3 3 3 3 3 3 3 3 3 3 4 4 5 5 5 4 4 4 4
3 3 3 3 3 2 2 2 2 2 3 3 3 3 3 3 3 3 3 3 3 3 3 3 3 3 3 3 3 3 3 3 3 4 3 4 4 4 4 4 4 4 4 4 4 4 3 3 4 4 4 4 4 4 4 4 4 4 4 4 4 4 3 4 3 3 3 3 3 3 3 3 3 3 3 3 3 4 4 4 5 5 4 5 5
3 3 3 3 3 3 3 3 3 3 3 3 3 3 3 3 3 3 3 3 3 4 4 3 4 4 4 4 4 4 4 4 4 4 4 4 4 4 4 4 3 4 4 4 4 4 4 4 4 4 4 4 4 4 4 4 4 4 4 4 4 4 3 4 3 3 4 3 3 3 3 3 3 3 3 3 3 3 4 4 4 4 4 5 5
3 3 3 3 2 3 3 2 3 3 3 3 3 3 3 3 4 4 4 4 4 4 4 4 4 4 4 4 4 4 4 4 4 4 4 3 4 4 3 4 4 4 4 4 4 4 4 4 4 4 4 4 4 4 4 4 4 4 3 3 4 3 3 3 3 3 3 3 3 3 3 3 3 3 4 4 3 4 4 4 4 4 4 4 5
3 3 3 3 3 3 3 3 3 3 3 3 4 4 4 3 4 4 4 4 4 4 4 4 4 4 4 4 4 4 4 4 4 4 4 3 3 4 4 4 4 4 4 4 4 4 4 4 4 4 4 3 4 3 3 3 3 3 3 3 3 3 3 3 3 3 3 3 3 3 3 3 3 3 4 3 3 4 4 4 4 4 4 4 4
3 3 3 3 3 3 3 3 3 3 3 4 4 4 4 4 4 4 4 5 5 5 5 4 4 4 4 4 4 4 4 4 4 3 4 4 3 4 4 4 4 4 4 4 4 4 4 4 3 4 3 3 3 3 3 3 3 3 3 3 3 3 3 3 3 3 3 3 3 3 3 3 3 3 3 3 4 4 4 4 4 4 4 4 5
3 4 3 3 3 3 3 3 3 3 4 4 4 4 4 4 5 5 5 5 5 4 5 5 4 4 4 4 4 4 4 4 4 4 4 4 4 4 4 4 4 4 4 4 4 4 4 4 3 4 3 3 3 3 3 3 3 3 3 3 3 3 3 3 3 3 3 3 3 3 3 3 3 3 3 3 4 4 4 4 4 4 4 5 5
4 4 3 3 3 3 3 3 4 3 4 4 4 4 5 5 5 5 5 5 5 5 5 5 4 4 4 4 4 4 4 4 4 4 4 4 4 4 4 4 4 4 4 4 4 4 4 4 4 3 3 3 3 3 3 3 3 3 3 3 3 3 3 3 3 3 3 4 3 3 4 4 4 4 4 4 4 4 4 4 4 4 4 4 5
Wind_Speed
97 98 100 101 102 103 104 105 106 107 107 108 109 110 111 112 113 114 116 117 119 120 120 120 121 121 122 122 123 124 125 125 125 126 127 128 128 128 128 128 129 129 128 129 129 129 129 130 132 133 134 135 135 135 135 134 133 132 132 131 129 127 125 123 121 120 119 119 117 115 114 114 115 117 119 121 123 125 127 130 131 132 132 132 132
94 95 97 98 98 99 100 101 101 101 102 103 104 105 106 108 109 110 111 112 114 115 115 115 115 116 117 118 119 120 121 122 122 124 126 127 129 130 129 129 129 130 128 127 128 129 129 129 130 132 133 134 134 135 136 136 136 135 135 134 133 131 129 127 126 125 123 121 119 118 117 116 115 114 114 115 117 119 121 124 126 128 130 131 131
92 93 94 95 95 96 96 97 98 98 99 101 102 103 104 104 105 105 106 106 107 108 109 109 109 110 112 113 114 115 116 117 117 118 121 124 126 128 129 129 129 131 130 129 128 129 129 129 129 130 131 132 133 134 136 136 137 137 137 136 136 135 133 131 130 129 126 124 123 123 121 120 118 115 113 112 112 114 116 119 121 124 126 128 129
91 92 93 93 94 94 94 95 96 98 99 101 102 103 103 103 103 103 103 103 104 105 107 107 106 106 107 108 109 109 109 110 111 112 113 116 119 123 126 128 128 130 131 131 129 129 129 129 128 128 129 130 132 133 135 136 137 138 138 138 138 138 137 135 133 132 130 129 128 126 125 124 121 117 113 112 112 112 113 115 117 120 122 124 125
89 90 91 92 92 92 93 94 96 98 99 101 101 102 102 101 101 101 102 103 104 105 106 106 105 105 105 106 106 106 105 104 105 106 108 109 112 115 119 122 125 126 129 130 130 129 128 128 128 128 128 128 130 131 133 135 136 137 138 139 140 140 140 138 137 135 134 133 132 130 128 126 123 119 117 117 116 115 114 114 115 117 119 120 120
88 89 89 89 90 91 92 94 96 98 99 99 99 99 99 98 98 99 100 101 101 102 103 103 103 103 104 105 105 105 104 102 102 102 103 105 106 109 112 115 118 120 123 125 126 127 128 128 128 128 128 128 128 129 131 133 135 137 138 139 140 141 141 141 140 138 137 137 136 133 131 129 126 124 124 122 121 119 117 116 116 116 117 117 117
86 86 87 88 89 90 92 94 95 96 96 97 96 95 94 94 94 95 96 96 97 98 99 100 100 99 99 99 100 100 100 99 100 100 100 101 102 103 106 109 111 114 116 119 121 122 124 125 126 127 128 128 127 128 129 131 133 136 137 139 140 141 141 141 141 140 140 139 138 137 135 132 130 128 128 126 124 122 121 119 117 117 116 116 115
82 83 84 86 88 90 92 93 93 93 94 94 92 91 90 92 92 92 92 93 94 95 95 96 96 96 96 96 95 94 93 93 94 95 95 97 99 100 101 103 105 108 110 114 116 118 119 120 122 124 125 127 127 127 128 130 132 134 136 137 139 141 142 142 142 142 142 141 141 139 138 136 134 131 130 130 128 126 124 122 121 120 118 117 115
80 81 83 84 87 89 90 91 91 92 92 91 89 88 89 90 89 87 88 88 89 89 89 89 91 92 93 94 94 92 91 89 90 90 89 90 93 96 99 100 101 103 104 107 111 114 115 116 117 119 121 123 125 126 127 129 131 133 135 136 138 140 142 142 142 142 143 143 142 142 140 139 138 135 133 133 132 130 127 126 124 123 122 120 118
78 80 81 83 85 86 86 86 87 87 86 85 84 84 83 83 82 81 82 82 82 82 82 82 84 85 86 88 89 89 89 88 88 88 87 86 86 89 92 95 97 100 101 103 105 108 111 112 113 114 115 117 120 123 125 126 129 132 135 136 137 138 140 142 142 142 143 143 143 144 143 141 140 138 136 135 134 132 130 129 128 127 125 123 122
76 78 79 81 82 82 83 83 84 82 81 81 81 80 79 78 77 76 78 78 79 78 78 79 81 81 81 81 81 82 83 83 84 85 85 84 84 84 85 87 90 94 97 99 102 104 107 109 110 110 111 113 114 117 120 123 126 129 133 136 137 138 139 140 141 141 142 142 143 144 144 143 142 140 138 137 136 135 134 133 132 131 130 128 127
75 76 77 78 79 79 81 82 82 80 79 79 79 77 76 74 72 71 72 73 73 73 73 75 77 78 79 78 77 76 76 76 77 78 79 80 82 83 83 83 84 87 91 95 98 101 103 106 107 107 108 109 110 112 115 119 123 126 130 133 135 137 138 139 139 140 140 141 142 142 143 144 143 141 139 139 139 139 139 137 136 136 135 133 132
73 74 74 75 75 75 76 76 76 75 75 75 75 73 71 69 67 67 66 66 65 64 65 66 68 71 73 74 74 74 73 72 72 72 72 74 77 80 83 83 82 83 86 89 93 96 99 101 104 105 105 106 108 109 111 114 118 122 126 129 132 134 136 138 138 138 139 139 140 141 142 142 143 142 141 141 141 142 143 141 140 138 138 137 135
69 70 71 73 72 71 72 71 69 69 71 71 70 69 68 66 65 64 63 61 60 59 58 59 60 61 64 66 68 69 71 71 70 69 69 69 71 75 79 82 82 82 83 85 88 91 94 96 99 101 102 103 105 106 107 109 114 119 122 124 128 130 133 135 137 138 138 138 138 139 140 140 141 141 141 141 142 143 145 145 143 142 141 141 139
67 68 69 71 71 70 69 68 66 66 66 67 66 66 65 64 63 62 60 59 58 57 55 55 55 56 57 59 61 63 66 67 68 68 68 67 68 70 73 76 79 81 82 83 85 87 88 90 93 96 97 99 101 103 105 106 109 114 118 120 123 126 130 132 134 136 137 138 137 137 137 138 138 139 140 141 141 143 145 147 148 146 145 144 142
65 65 67 69 69 68 67 65 64 63 63 62 63 63 62 61 61 60 58 57 56 55 54 53 53 54 54 54 56 58 60 63 64 66 67 67 67 67 68 70 72 76 79 82 84 84 85 85 87 90 92 94 97 99 102 104 106 109 113 117 119 122 126 129 131 133 135 137 137 137 136 135 135 136 138 140 140 142 145 148 150 150 148 147 146
63 63 64 66 66 66 64 63 61 60 59 59 60 60 60 59 58 57 56 55 54 53 52 52 52 52 52 52 52 54 55 58 60 62 64 66 66 67 66 66 67 70 73 77 80 81 82 82 83 84 87 90 93 95 97 100 103 105 108 112 116 119 122 125 128 130 131 134 135 136 135 134 133 134 136 138 139 140 142 146 149 150 150 148 148
59 60 61 62 64 63 61 60 59 58 57 57 58 58 58 56 55 54 53 52 51 50 50 50 50 50 50 50 50 51 52 54 56 59 61 63 64 65 64 64 65 66 68 71 74 77 78 79 80 81 83 86 88 91 93 96 99 103 105 108 113 116 118 121 125 128 129 131 133 134 134 133 131 131 132 135 137 139 141 143 146 148 150 149 148
57 57 58 59 60 60 57 57 57 57 55 55 55 56 55 53 52 50 50 49 48 48 47 47 48 48 48 48 49 49 49 51 53 55 58 60 61 61 62 62 63 64 65 68 70 72 74 76 77 79 81 83 84 86 89 92 95 99 102 106 110 113 116 117 120 124 127 129 130 132 133 132 131 130 129 130 133 136 138 140 143 145 147 148 148
55 55 56 56 57 57 55 53 54 55 55 54 53 52 51 50 49 47 46 46 45 45 45 45 45 46 46 47 48 48 48 48 50 52 55 56 57 57 58 60 62 63 64 65 67 69 70 71 73 76 78 80 82 83 86 88 91 94 98 102 107 111 113 115 117 120 123 126 128 129 130 131 131 130 129 128 129 131 134 137 140 142 144 146 147
55 54 54 54 54 55 54 52 52 53 53 53 51 49 48 47 46 45 44 43 42 42 42 43 43 44 44 45 46 47 47 47 48 49 51 53 53 53 54 57 60 61 62 63 65 66 67 68 69 71 74 77 79 81 83 84 86 89 93 98 103 107 110 113 115 117 119 122 125 127 128 128 129 130 129 128 128 128 131 134 137 139 141 143 144
56 55 54 52 52 53 53 52 51 51 51 51 49 47 46 45 44 43 42 40 39 39 39 40 40 41 42 43 44 45 46 46 46 46 47 49 50 50 51 54 56 58 60 61 63 64 65 66 67 69 71 73 75 78 80 81 82 84 88 92 97 102 106 110 113 115 116 119 121 124 125 126 127 128 128 128 127 127 128 130 133 135 138 140 142
58 56 54 52 50 51 52 52 51 50 50 49 47 45 44 42 41 40 40 38 36 36 37 38 38 39 39 40 42 43 44 45 44 44 44 45 46 47 48 50 52 54 56 58 60 62 64 65 66 67 69 71 73 75 78 79 80 82 84 87 92 96 101 105 110 113 115 116 118 121 123 124 125 126 126 126 126 126 126 127 129 131 133 136 138
59 56 55 52 50 49 51 51 50 49 48 47 45 44 43 41 39 39 38 36 34 34 35 36 37 38 38 37 39 41 42 43 43 42 42 43 44 45 46 47 49 50 52 55 57 59 61 63 64 65 66 68 70 73 75 77 79 80 81 83 86 90 95 100 105 109 112 114 116 118 120 122 122 123 124 124 125 125 125 124 125 126 129 132 134
57 55 54 53 50 50 50 50 49 48 47 45 44 43 42 40 38 37 37 35 33 32 32 33 34 36 37 36 36 37 39 41 42 41 41 42 43 43 43 45 46 48 49 51 53 55 57 59 62 63 64 66 68 70 72 75 77 78 79 80 82 85 89 94 99 104 108 111 113 115 118 120 120 120 121 122 123 124 124 124 123 123 125 128 131
56 53 52 52 51 49 49 49 48 47 46 44 43 42 41 40 38 37 36 35 33 32 32 32 32 32 34 35 35 35 37 38 39 41 41 40 41 42 42 42 43 45 47 49 51 52 54 56 58 60 61 63 65 67 70 72 74 76 76 77 78 81 84 88 93 97 102 105 108 111 114 117 119 119 119 120 121 123 124 124 123 122 123 125 127
57 54 52 52 51 49 48 47 47 46 44 43 42 41 40 40 39 37 36 34 32 31 31 31 31 31 31 32 33 34 34 34 36 38 39 39 39 40 40 40 40 42 44 46 49 50 51 53 54 56 58 60 62 65 67 70 72 73 74 75 76 77 80 83 87 91 95 98 102 105 109 113 116 117 118 119 120 121 122 123 123 122 122 122 124
59 56 53 52 52 51 49 48 47 45 44 43 41 39 38 39 39 39 37 35 33 31 30 29 30 30 30 29 30 32 32 32 33 35 36 36 37 38 38 39 39 40 41 43 45 47 49 50 52 53 55 57 59 62 65 67 68 70 72 73 74 75 76 79 82 86 89 92 95 99 102 106 110 114 116 117 118 119 120 121 122 122 121 121 121
58 56 54 52 51 50 50 48 46 45 44 43 40 38 37 37 37 37 37 35 34 33 31 30 30 31 31 29 28 29 30 30 31 33 34 34 35 35 36 37 38 38 39 40 43 45 47 48 49 50 52 54 57 59 61 63 65 66 68 69 71 72 74 76 78 81 84 88 90 93 96 99 103 107 110 113 115 116 117 118 119 120 120 120 119
56 55 53 52 49 48 48 48 46 44 44 42 40 37 36 35 35 35 35 34 33 32 31 31 30 30 31 29 27 26 28 29 30 31 32 33 33 34 34 35 36 37 37 39 41 43 44 45 47 48 49 51 54 57 59 60 61 62 64 66 68 70 71 73 76 78 80 83 86 88 91 93 96 99 103 106 109 112 113 115 117 118 118 118 118
55 54 52 51 49 48 47 46 45 44 43 41 39 37 35 34 34 34 33 32 31 31 30 30 30 30 30 30 27 25 26 28 29 31 32 31 32 32 32 33 34 35 36 37 38 40 42 45 46 46 47 49 51 53 55 57 58 59 61 63 65 67 69 71 74 76 77 80 82 84 86 88 90 93 95 99 102 105 108 111 113 114 115 115 115
54 53 51 49 49 47 46 46 45 44 42 40 38 37 36 35 34 34 33 31 30 30 30 29 28 28 29 29 28 27 26 27 29 30 31 30 30 31 31 31 32 33 35 36 37 39 41 44 45 45 45 46 48 50 52 54 56 57 59 61 63 65 67 69 72 74 75 77 79 80 82 84 86 88 90 93 96 99 102 104 107 109 111 111 112
53 52 50 49 48 47 45 45 45 44 42 40 38 38 37 35 35 34 33 31 29 29 29 28 27 26 27 27 28 28 27 28 28 28 28 29 30 30 29 29 30 32 33 35 36 37 39 41 43 44 44 44 45 47 49 51 53 54 57 59 61 63 65 67 69 71 73 75 76 78 79 81 83 84 86 88 91 93 96 99 101 103 105 107 108
54 53 52 50 48 47 45 44 44 43 41 39 38 38 37 36 35 34 33 32 30 29 29 29 28 26 25 25 26 27 28 28 28 26 26 27 29 29 28 28 29 30 32 33 34 35 36 38 40 42 43 43 43 44 46 48 50 52 54 56 58 60 62 64 66 68 70 72 74 76 77 79 80 81 83 85 87 89 92 94 96 97 99 101 103
53 52 52 51 50 48 46 45 44 42 39 38 37 36 36 35 34 33 33 32 31 30 29 29 28 27 25 24 25 26 26 27 26 25 25 26 27 28 28 28 28 29 30 31 32 33 34 35 36 38 40 41 42 42 44 46 47 49 51 53 55 56 58 61 64 67 68 70 71 73 74 76 77 79 80 82 84 86 87 89 91 92 94 96 97
53 51 50 50 50 49 47 46 45 42 39 37 36 35 34 34 33 33 33 32 31 30 28 27 27 26 24 23 23 24 25 25 25 25 25 26 27 28 28 28 28 28 29 30 31 33 33 34 34 35 37 39 40 41 42 43 45 47 48 50 51 53 55 58 61 63 65 67 68 69 71 73 75 76 78 79 81 82 84 85 86 87 89 90 91
53 51 50 50 49 48 47 47 45 42 39 38 37 36 34 33 32 32 32 31 30 29 27 26 25 24 23 22 21 22 23 23 24 24 24 25 25 26 26 26 27 28 29 29 30 31 32 33 33 33 34 36 38 40 41 42 43 44 45 46 49 51 53 56 58 58 60 62 64 66 69 71 72 73 75 76 78 79 80 81 82 83 84 85 86
53 53 52 51 49 47 47 46 44 41 39 39 38 36 34 32 31 31 30 29 28 27 25 24 23 22 21 20 19 19 20 21 21 22 22 22 23 24 25 25 26 27 28 28 29 30 31 31 32 32 32 34 36 38 39 41 41 42 43 45 47 49 51 53 54 54 55 58 60 62 65 67 68 70 71 72 73 74 75 77 78 79 80 80 82
54 54 53 52 50 48 47 45 43 40 38 38 37 35 33 32 31 31 29 28 26 25 23 22 21 20 20 19 18 17 17 18 19 19 20 20 21 22 23 23 24 25 26 26 27 28 29 30 31 31 32 33 34 35 37 38 40 41 42 44 45 47 49 50 51 51 52 54 56 58 60 62 64 66 66 67 68 69 70 72 73 74 75 77 80
56 55 54 54 52 50 48 45 43 40 38 37 36 35 33 33 32 30 28 26 24 23 22 21 20 19 18 18 17 16 16 16 17 18 19 19 20 20 21 22 23 23 24 25 26 27 28 29 30 31 32 32 33 34 34 36 37 39 41 42 44 46 47 48 49 50 50 52 53 54 56 58 60 61 62 63 64 64 66 68 69 70 73 76 78
58 57 56 55 53 51 49 46 43 40 39 37 36 35 34 33 31 30 27 25 23 21 20 20 19 18 17 17 16 15 15 15 16 17 17 18 19 19 20 20 21 22 23 24 25 26 27 27 28 29 30 31 32 33 34 34 35 36 38 40 41 43 45 46 47 48 49 50 51 51 53 55 56 57 58 59 60 60 62 65 67 68 71 74 74
60 59 58 56 54 52 49 46 42 40 39 38 37 35 34 33 31 29 27 24 23 21 20 20 19 18 17 16 16 15 15 15 15 16 17 17 18 18 19 19 20 21 22 23 24 25 26 26 27 28 28 29 30 31 32 33 34 35 36 37 38 40 41 43 45 46 47 48 48 48 49 51 52 54 55 56 57 58 60 63 65 67 68 69 69
62 61 60 57 54 52 49 46 43 41 40 38 37 35 34 32 30 28 26 25 23 22 21 21 20 19 18 17 16 16 15 15 15 15 16 17 17 18 18 19 19 20 21 22 23 23 24 25 25 26 26 27 28 29 30 31 32 33 34 35 36 36 37 39 40 42 43 44 45 45 46 47 48 50 51 53 54 55 57 60 62 63 64 64 64
62 61 59 57 54 52 49 46 44 42 40 39 37 36 34 31 29 28 26 25 24 23 23 22 22 21 19 18 18 17 16 15 15 15 15 16 16 17 17 18 18 19 19 19 20 21 22 23 23 24 25 26 26 27 28 29 30 31 31 32 33 34 35 36 36 37 38 40 41 42 43 44 44 45 47 47 49 50 53 56 58 60 60 60 61
63 61 60 58 55 53 50 47 45 43 41 40 38 36 34 32 30 29 27 25 24 23 23 23 22 21 20 19 18 17 17 16 15 15 14 14 14 15 15 16 17 17 17 17 18 18 19 20 21 22 23 23 24 25 26 26 27 28 28 29 30 31 32 33 34 35 36 37 38 38 39 40 40 41 42 43 44 46 48 51 53 54 55 57 59
65 64 62 59 56 53 50 48 46 44 42 40 38 36 35 33 32 29 27 26 24 23 22 22 21 20 19 18 17 17 16 16 15 15 14 14 13 13 14 14 15 15 16 17 17 17 17 18 19 20 20 21 22 23 24 25 26 26 26 27 28 28 29 30 31 33 33 34 35 36 36 37 38 38 39 40 41 42 44 46 47 49 50 52 54
66 64 62 59 57 54 51 49 47 45 43 41 39 37 36 34 32 30 28 27 25 24 23 22 21 21 20 19 18 17 17 16 15 15 14 14 13 13 13 13 13 14 15 16 16 16 16 16 17 17 19 20 21 22 23 23 24 24 24 25 25 26 27 28 29 30 30 31 32 33 34 35 36 36 37 37 38 39 41 42 43 44 45 47 48
67 65 64 61 58 56 53 50 48 45 43 42 40 38 36 34 32 31 30 28 27 25 24 23 22 21 20 19 19 17 16 15 15 14 14 13 13 12 12 12 12 13 14 14 14 14 15 15 15 16 16 17 18 20 20 21 21 21 22 22 22 23 24 25 26 27 28 29 29 30 31 32 33 33 34 35 36 37 37 38 39 40 42 43 44
68 67 65 63 60 57 54 51 48 46 44 43 40 38 36 35 34 32 31 29 27 25 25 24 22 21 20 19 18 17 16 15 14 13 12 12 11 11 11 11 11 12 12 12 13 13 13 13 14 14 15 16 16 17 18 19 19 19 19 19 20 20 22 23 24 25 26 26 26 27 27 28 29 29 30 31 32 33 35 36 37 38 39 40 41
69 68 66 64 61 58 55 52 49 47 46 43 40 39 37 36 35 33 31 29 27 25 24 23 22 20 19 19 18 18 17 15 14 13 13 12 11 10 10 10 10 10 11 11 11 11 12 12 12 12 13 13 14 15 16 16 17 17 17 17 18 18 20 21 23 24 24 24 24 24 24 24 25 25 26 27 28 29 31 33 34 36 37 38 39
70 68 67 65 62 58 55 52 50 48 46 43 41 39 38 36 34 32 30 29 27 25 25 24 22 20 20 20 19 18 17 16 15 14 13 12 10 9 9 9 8 9 9 9 10 10 11 11 11 11 11 11 12 12 13 14 15 15 15 16 16 17 18 19 21 22 23 23 23 23 23 23 23 24 24 25 26 27 28 29 31 33 35 36 37
Wind_Direction
277 276 275 274 274 273 272 272 272 271 271 270 270 269 269 269 268 267 267 266 266 265 264 264 263 262 262 261 260 259 259 258 257 257 257 257 256 256 255 255 254 253 252 251 250 249 247 246 246 246 246 246 246 245 245 245 244 244 245 245 245 244 244 244 243 243 244 245 245 245 246 246 245 245 246 246 246 246 247 247 247 247 246 246 246
278 277 277 276 276 275 275 274 274 274 273 272 272 271 270 269 268 267 267 267 266 266 266 266 266 265 264 264 263 262 261 260 258 257 257 256 256 256 255 255 255 255 254 252 252 251 249 248 246 246 245 245 245 245 245 245 245 244 244 245 245 244 244 244 244 243 243 244 245 245 245 245 245 245 245 246 246 246 247 247 247 247 247 246 246
280 280 280 279 278 278 278 278 277 277 276 275 273 272 271 270 270 269 269 269 269 269 269 269 268 267 266 266 265 264 263 262 260 259 257 256 256 256 256 255 254 254 254 253 252 251 251 249 248 247 246 246 245 245 245 245 245 245 245 245 245 245 244 244 244 244 243 243 244 244 245 245 245 245 245 246 246 246 246 247 247 247 247 247 246
283 282 281 280 280 280 279 279 278 276 275 274 273 273 273 273 273 274 274 274 273 272 272 271 270 269 267 266 265 264 262 262 261 260 258 256 255 255 255 255 254 253 253 253 252 251 251 250 249 248 247 246 246 245 245 245 245 245 245 245 245 245 245 244 244 244 244 243 243 243 244 245 245 245 245 246 246 246 246 246 246 246 247 247 246
282 282 281 282 282 281 280 279 278 276 275 275 275 275 276 276 277 277 276 275 274 272 272 271 271 270 269 267 266 265 263 261 260 259 258 256 255 254 254 254 253 253 252 252 251 251 250 250 250 249 248 247 246 246 245 245 245 244 244 245 245 245 244 244 244 243 244 244 243 243 243 244 245 245 244 245 244 244 245 245 245 245 246 246 246
284 284 284 284 283 282 281 279 278 278 278 278 278 278 279 279 278 277 276 275 274 273 273 272 271 270 269 268 267 266 265 264 262 260 259 257 255 254 253 253 253 252 252 252 251 250 250 249 249 249 248 248 247 246 246 245 245 245 244 244 244 244 244 244 244 244 243 244 244 243 243 243 243 244 244 243 244 244 244 244 244 245 245 246 246
286 287 286 285 284 282 281 280 279 279 280 280 280 281 281 280 278 277 276 276 275 274 273 273 272 271 270 268 267 266 265 264 262 261 260 258 257 255 254 253 252 252 252 252 251 250 249 248 247 247 247 247 247 246 246 246 245 245 245 244 244 244 244 244 244 244 243 243 244 244 243 243 242 243 244 244 244 244 244 244 244 245 245 246 246
288 287 286 285 284 283 282 282 282 282 282 283 283 283 282 280 279 278 277 277 275 274 273 272 272 271 270 269 268 267 265 264 262 260 258 257 257 256 255 254 253 252 251 251 251 250 249 248 247 246 246 246 246 246 245 245 245 245 245 245 244 244 244 243 243 243 243 243 243 243 243 243 243 242 243 244 244 243 244 244 244 245 245 246 246
288 287 286 285 284 283 284 284 284 284 283 284 284 283 281 280 279 279 277 276 274 273 272 271 269 269 268 268 268 268 267 266 264 262 259 256 254 254 254 253 253 252 251 250 250 250 249 248 247 245 244 244 245 245 244 244 244 245 245 245 245 244 244 243 242 242 242 242 243 243 243 243 243 242 242 243 244 244 244 244 244 244 245 245 245
289 288 287 286 284 284 284 284 283 283 284 284 283 282 281 280 280 279 278 276 275 274 273 272 270 268 266 266 265 266 265 265 264 263 262 259 255 253 252 251 251 251 251 250 249 249 248 248 247 246 245 243 243 243 243 243 243 243 244 245 245 245 244 244 243 242 241 241 241 242 242 242 243 243 243 243 244 244 244 244 244 244 245 245 245
292 291 290 289 288 288 288 287 287 287 287 286 284 284 283 282 281 280 279 277 277 276 275 273 272 270 268 266 265 264 263 262 262 262 261 260 259 256 253 251 250 250 249 249 248 248 247 247 246 246 245 244 242 242 242 242 242 242 242 243 244 244 244 245 244 244 243 241 241 241 241 242 242 242 242 243 243 244 244 244 244 244 244 244 244
296 293 291 290 289 289 288 288 288 288 287 286 285 284 283 282 281 279 277 275 274 272 271 270 269 269 269 268 267 265 263 262 260 259 258 257 258 257 256 253 250 248 247 247 247 246 246 246 246 245 245 244 242 241 240 241 241 241 241 241 242 243 243 244 244 245 244 243 242 241 241 241 241 241 241 241 242 243 243 243 243 244 244 244 244
296 293 291 289 288 287 287 287 288 288 287 287 286 286 285 284 283 281 278 276 274 271 269 267 265 265 265 266 266 266 265 264 261 259 256 254 253 254 255 254 251 248 246 245 245 245 245 245 245 245 244 243 243 241 239 239 240 240 240 240 241 241 242 243 244 244 244 244 243 242 241 241 240 240 240 239 240 242 243 243 243 244 244 245 245
297 295 294 293 292 291 290 290 290 290 289 289 289 289 288 288 286 285 283 281 279 276 272 269 265 263 263 263 264 264 264 264 263 261 258 254 252 250 250 251 252 251 248 247 245 244 244 244 244 244 244 243 243 242 240 238 238 239 239 239 240 241 241 241 242 243 244 244 244 244 243 242 241 241 240 239 239 240 241 243 243 243 244 244 245
300 299 297 296 295 295 294 294 294 292 291 291 291 290 290 289 288 288 287 285 283 280 276 272 268 265 263 262 262 261 261 262 262 261 260 257 254 251 249 248 249 250 250 249 247 246 244 243 242 243 243 243 242 242 241 240 238 238 239 239 238 239 240 241 241 241 242 243 244 244 243 242 241 241 240 240 239 239 240 241 243 243 243 244 244
303 301 299 298 298 298 297 297 296 294 293 292 292 292 291 291 291 290 289 287 284 281 278 275 272 268 266 263 261 260 260 260 260 259 259 258 256 254 251 248 247 247 248 248 248 248 246 244 242 241 242 242 241 241 241 240 239 238 238 239 238 238 239 240 240 240 241 242 243 243 244 243 242 241 241 240 239 238 238 240 242 243 243 243 244
304 303 301 300 300 299 299 299 297 296 295 294 294 293 293 292 291 290 288 286 284 281 279 276 274 271 268 264 262 260 259 258 258 257 257 257 256 255 253 251 248 247 246 247 248 248 248 247 244 242 241 240 240 239 239 239 239 238 237 238 238 238 237 238 240 240 240 241 242 243 243 243 243 241 241 240 240 239 238 238 240 242 243 243 243
306 305 303 302 301 301 301 300 299 298 297 297 296 294 293 292 291 290 288 286 283 281 278 276 274 271 268 265 262 261 259 258 257 257 256 255 255 255 254 252 251 249 247 247 247 247 247 247 246 245 243 241 240 238 238 238 238 238 237 237 238 238 238 237 238 239 240 240 241 242 243 243 243 242 241 240 240 239 239 238 239 240 242 243 244
309 308 306 304 303 303 303 302 300 300 299 298 296 295 294 294 292 291 289 287 284 281 278 276 273 271 269 266 264 261 260 259 258 257 256 254 254 253 253 252 251 250 249 248 247 246 245 245 245 245 244 243 242 240 238 237 236 236 236 236 236 238 238 237 237 238 239 240 240 241 242 242 243 243 242 241 240 240 239 239 239 239 241 242 244
313 311 309 307 306 304 304 302 301 301 301 300 298 297 296 295 294 292 290 287 284 282 279 276 273 271 269 267 265 263 260 259 259 258 257 255 254 253 252 252 251 249 249 248 247 246 245 244 243 243 243 244 243 242 240 238 236 236 236 236 236 236 237 238 237 237 238 239 240 240 241 242 242 242 242 241 240 239 239 239 239 239 240 241 242
317 314 312 311 308 306 305 304 303 303 302 302 301 300 299 298 297 294 291 287 283 280 277 275 273 271 270 268 267 265 263 260 259 258 258 257 255 253 252 251 250 249 248 248 247 246 245 244 242 242 241 242 242 242 242 240 238 237 236 236 236 236 236 237 237 237 237 238 239 240 240 241 241 242 242 242 241 240 239 239 238 239 239 240 241
320 318 316 314 311 309 307 307 307 306 305 304 304 303 301 299 298 295 292 288 284 280 277 275 273 272 271 270 269 267 265 263 260 259 259 258 257 255 253 251 250 250 249 248 247 246 245 244 243 242 241 240 241 241 242 241 240 238 236 236 236 236 236 236 237 237 237 237 238 239 240 240 241 241 242 242 242 241 240 239 239 238 239 239 240
323 320 318 316 314 311 310 310 310 309 308 308 307 306 304 301 299 296 293 289 285 282 280 278 277 275 273 271 270 269 266 264 263 262 261 260 259 257 255 253 251 250 250 249 248 247 246 245 244 243 242 241 240 240 240 241 240 239 237 236 236 235 236 236 237 237 237 237 237 238 239 240 240 241 241 242 242 242 241 240 239 239 239 239 240
323 321 319 318 316 314 313 313 313 311 310 311 310 308 306 304 301 299 295 292 288 284 282 281 280 278 275 271 269 269 268 267 265 264 263 262 261 259 258 256 253 252 251 250 249 248 247 246 245 244 243 241 240 240 240 240 240 239 238 237 236 236 236 236 236 237 237 238 237 238 239 240 240 240 241 241 242 243 243 242 240 240 239 239 240
324 323 321 320 320 318 316 316 315 313 313 313 312 310 308 306 303 300 297 295 292 288 285 283 280 278 276 272 269 268 268 267 267 266 264 262 261 260 258 257 255 253 252 251 250 249 248 247 246 245 243 242 241 240 239 239 239 239 239 238 237 236 236 236 236 237 238 238 238 237 238 239 240 240 240 241 242 243 243 243 242 241 240 239 239
326 325 323 322 322 321 319 317 317 316 317 316 315 312 310 308 305 303 300 298 296 293 289 286 282 277 274 272 269 267 266 266 266 266 264 263 261 260 258 256 255 254 254 253 252 250 249 248 247 246 244 243 242 240 239 239 238 239 238 238 237 237 237 237 237 237 238 238 238 237 238 239 240 241 240 240 241 242 243 244 244 243 241 240 239
328 328 327 325 324 323 321 319 319 319 319 318 316 315 312 310 308 306 304 301 299 296 292 289 285 279 273 270 268 267 266 264 263 262 262 262 261 261 259 257 256 255 254 253 253 252 251 250 249 247 245 244 242 241 240 238 238 238 238 238 237 237 237 237 237 237 238 238 238 238 238 238 239 240 241 241 241 241 242 243 243 244 243 242 241
330 330 330 329 327 325 324 322 322 322 322 320 318 317 315 312 310 308 306 305 303 301 297 293 288 283 278 272 269 268 267 264 262 261 260 259 259 259 259 258 257 255 254 253 253 253 252 251 249 248 246 244 243 241 240 239 238 237 237 237 237 237 237 237 237 238 238 238 238 238 238 238 238 239 240 241 241 241 241 242 243 243 244 244 243
331 332 332 331 329 326 325 325 325 325 324 322 320 319 317 313 310 307 306 306 306 304 301 296 291 287 283 279 273 271 269 266 264 262 260 258 257 256 257 257 256 255 254 253 253 252 251 251 250 249 247 245 243 242 241 239 238 238 237 237 237 237 237 237 238 238 238 238 238 238 238 238 238 238 239 240 241 241 242 242 242 243 243 244 244
333 334 333 331 329 327 326 327 327 326 325 323 322 321 318 314 308 305 304 305 305 304 302 298 293 289 287 284 280 276 273 269 266 264 262 259 258 258 256 256 256 255 254 253 252 253 253 252 251 250 248 246 244 243 241 240 239 238 238 237 237 237 237 237 238 238 238 238 238 238 238 238 238 238 239 240 240 241 241 242 242 242 243 243 244
335 335 334 331 330 330 329 328 328 328 327 325 323 322 319 314 310 307 307 307 307 306 303 300 296 292 289 288 284 279 274 271 269 267 265 263 261 260 259 257 256 255 254 254 253 253 252 252 251 249 248 247 245 243 241 240 239 238 238 237 237 236 236 236 237 237 237 237 237 238 238 238 238 238 238 239 240 240 241 241 242 242 242 243 243
337 336 334 333 332 332 332 331 331 330 329 327 325 323 320 316 313 312 311 312 311 308 306 304 300 295 292 289 286 282 276 272 269 268 268 267 265 263 261 260 258 257 256 255 253 252 251 251 251 250 249 248 247 244 242 240 239 238 238 238 237 236 235 235 236 237 237 237 237 237 238 238 238 238 238 238 239 239 240 241 241 242 243 243 243
339 338 336 335 334 334 335 334 333 332 331 330 328 325 322 319 317 316 315 315 315 312 310 308 304 299 294 289 286 283 279 275 273 272 272 270 268 265 263 261 260 258 256 254 253 253 252 252 252 252 250 249 247 246 244 241 239 238 238 238 238 237 237 236 236 236 237 237 238 238 238 238 238 238 238 238 238 238 239 239 240 241 242 243 243
342 340 339 338 337 337 338 337 336 335 334 332 330 326 324 322 320 319 318 318 318 318 315 312 309 304 297 290 285 282 281 280 279 277 274 270 268 266 264 262 259 258 256 255 254 253 253 254 254 253 252 250 248 247 245 243 241 239 238 238 238 238 238 237 237 236 237 237 237 238 238 238 238 238 238 238 238 238 238 239 239 239 240 241 242
345 343 341 340 340 340 340 340 338 338 336 334 330 327 325 323 322 321 321 320 321 321 317 312 309 305 300 292 287 283 281 280 279 277 273 269 267 266 265 263 260 257 255 254 253 252 252 251 252 252 252 251 249 248 246 245 243 241 239 239 239 239 239 238 237 237 236 236 237 238 238 239 239 239 239 239 239 239 239 239 239 239 239 240 240
346 345 343 342 342 342 342 342 341 340 339 335 332 330 329 327 325 324 322 322 322 320 316 311 306 304 301 296 290 284 280 278 275 273 270 268 267 267 267 266 265 262 259 256 255 254 252 251 250 250 250 250 249 248 248 246 245 243 242 241 241 240 240 240 239 238 237 237 237 237 238 238 239 239 239 239 239 239 239 240 240 240 240 240 240
348 347 347 346 346 345 344 344 343 342 340 337 335 334 333 330 327 325 324 323 321 319 315 310 305 303 302 299 294 287 282 279 276 274 272 271 271 271 271 270 268 266 263 260 258 257 256 255 253 251 249 248 247 247 248 248 247 246 245 244 243 242 241 241 241 240 240 239 238 238 238 239 239 239 239 239 240 240 240 241 241 241 241 241 241
351 350 349 349 349 348 347 346 345 344 342 339 337 336 334 332 330 328 327 324 321 317 314 310 308 305 303 299 295 290 286 283 281 279 277 276 274 272 271 270 268 267 265 263 262 260 259 259 257 255 253 250 247 246 247 247 248 247 246 246 245 245 244 244 243 243 242 242 241 241 240 241 241 241 241 241 241 241 241 242 242 242 242 242 242
354 352 351 351 351 351 350 349 347 346 343 340 339 338 337 336 335 333 331 327 322 318 315 313 311 308 304 300 297 293 290 287 285 282 278 276 273 271 270 270 269 268 266 265 263 261 260 258 257 255 254 252 250 248 247 247 247 247 247 246 246 247 247 246 246 245 244 243 243 243 243 243 243 244 244 244 244 244 243 243 243 243 243 242 242
356 355 353 353 353 353 352 351 350 348 345 343 342 341 341 340 339 337 334 329 325 321 320 319 316 312 308 304 302 299 296 292 288 285 281 278 275 272 270 269 268 266 265 263 262 261 259 258 257 255 254 254 252 251 249 248 247 247 246 246 246 247 247 248 248 247 246 244 243 243 244 244 244 244 244 245 245 246 246 246 245 244 243 242 242
357 357 356 356 355 355 354 353 351 349 348 347 346 346 345 344 342 339 336 333 330 327 326 325 322 318 315 311 308 305 301 298 294 289 285 282 277 274 270 268 265 264 263 262 262 261 261 260 259 258 257 256 255 254 253 251 250 249 248 247 246 246 246 247 247 248 247 247 245 244 244 244 245 246 245 245 244 244 244 245 245 244 243 243 243
359 359 358 358 357 356 356 354 353 352 351 351 351 350 349 347 345 342 340 338 336 334 332 331 328 326 323 319 316 312 308 305 300 294 289 285 281 277 273 268 265 263 262 262 262 263 263 263 262 261 260 259 258 257 256 255 254 252 251 249 247 246 245 245 246 247 247 248 248 247 246 245 245 246 246 245 245 244 243 244 244 243 243 244 244
1 0 360 359 358 357 357 356 356 355 355 355 353 353 352 350 348 346 344 343 341 339 338 337 335 333 330 327 323 320 316 312 306 300 295 290 286 283 278 274 270 267 265 265 265 265 265 265 264 264 262 260 259 258 257 256 255 254 253 252 251 249 248 246 246 246 247 247 247 248 247 246 245 245 245 244 244 244 244 245 246 246 246 246 246
2 2 1 0 359 359 359 359 359 359 358 357 356 356 355 354 352 351 350 348 346 345 343 341 339 337 335 332 329 325 322 317 311 305 300 295 291 288 285 281 278 275 273 271 269 267 265 265 264 263 262 261 259 257 256 255 255 254 254 254 253 253 251 250 248 247 246 246 246 246 246 246 246 245 245 244 243 243 242 243 245 247 247 247 247
3 3 3 2 1 1 1 1 1 1 1 360 359 359 358 357 356 356 354 352 352 351 348 344 341 339 338 336 333 329 326 322 317 312 307 302 297 293 290 287 285 285 283 279 275 272 269 267 266 265 264 263 261 260 258 256 256 255 255 254 253 252 251 251 250 248 247 247 247 246 246 246 245 245 245 244 244 243 241 241 242 244 245 246 247
4 4 4 4 3 2 2 3 3 3 3 2 2 1 1 360 359 359 358 358 357 355 350 346 343 341 340 339 337 334 331 327 324 320 315 310 305 300 296 294 292 290 286 281 279 277 274 271 269 267 266 264 262 261 259 258 257 256 255 254 253 252 251 251 250 249 248 248 247 247 246 246 246 245 244 244 244 243 243 243 243 243 243 244 245
5 5 5 5 5 5 5 5 5 5 5 4 4 4 3 2 2 2 2 2 0 357 353 350 347 346 345 344 342 340 337 333 329 325 321 317 312 307 301 298 293 287 282 279 277 275 271 269 266 263 262 260 259 258 258 257 256 255 254 253 253 252 251 251 250 250 248 247 247 246 246 245 244 244 243 243 242 242 243 243 243 243 243 243 243
5 6 6 6 6 6 6 6 6 6 6 6 6 6 5 5 4 5 5 5 3 -0 357 354 351 350 349 348 346 343 341 337 333 329 325 322 317 312 306 299 292 285 280 278 276 273 270 268 264 261 259 258 257 257 257 256 256 255 253 251 250 249 248 249 249 249 248 247 246 245 245 244 243 243 242 242 242 241 241 242 242 242 242 243 242
6 7 7 8 8 8 7 7 7 8 8 8 8 8 7 7 7 7 7 7 5 2 359 357 354 353 352 351 350 347 344 342 339 337 333 329 324 319 313 306 299 293 289 286 282 277 273 270 266 262 260 258 257 257 257 257 256 255 253 250 247 245 243 244 245 245 245 244 244 244 243 244 243 243 243 242 242 241 240 240 239 239 240 241 242
7 7 8 9 9 8 8 8 8 9 9 9 9 9 9 9 9 8 7 7 6 4 2 360 359 358 358 357 356 355 352 351 349 345 340 336 331 327 321 314 308 303 298 292 286 280 275 271 267 264 261 259 258 257 258 258 257 256 254 251 248 243 240 240 240 240 240 240 240 240 241 242 242 242 242 242 241 241 240 239 238 237 237 237 238
7 8 8 9 10 9 9 9 10 10 10 9 10 11 11 10 9 8 8 8 8 8 6 5 4 5 4 1 0 359 357 356 353 349 345 342 337 331 324 318 312 308 303 298 292 288 283 279 276 272 269 267 266 264 263 262 261 259 256 253 250 245 241 238 237 237 237 236 235 234 235 236 237 238 239 239 239 238 238 237 237 237 236 236 236